www.pogodaiklimat.ru

Погода и климат >> Архив погоды >> Россия >> Приморский край >> Тимирязевский


АРХИВ ПОГОДЫ в Тимирязевском

Время (UTC), дата Ветер
(напр.,м/с)
 
Видим.   Явления Облачность Т
(С)
Тd
(С)
f
(%)
Тe
(С)
Тes
(С)
Комфортность P
(гПа)
Po
(гПа)
Тmin
(С)
Tmax
(С)
R
(мм)
R24
(мм)
S
(см)
03 12.02 СЗ 5
{11}
20 км 8/3 600 м
[Cu hum Ci fib]
-7.8 -26.6 20 -15 -13 1032.4 1027.8
06 12.02 СЗ 6
{12}
20 км 4/1 600 м
[Cu hum Ac lent Ci fib]
-6.6 -27.2 18 -14 -13 1030.7 1026.1
09 12.02 СВ 1
{12}
20 км ясно -9.5 -26.7 23 -11 -11 1031.2 1026.5 -6.4
12 12.02 СЗ 1 20 км ясно -14.6 -26.8 35 -17 -17 1031.9 1027.1
15 12.02 СЗ 2 20 км ясно -15.7 -26.9 38 -21 -21 1033.4 1028.6
18 12.02 Ю 2 20 км ясно -17.8 -26.4 47 -23 -23 1033.9 1029.0
21 12.02 Ю 2 20 км ясно -20.4 -25.9 61 -26 -26 1033.1 1028.2 -21.7
00 13.02 штиль 0 10 км ясно -15.2 -23.4 49 -15 -12 1033.4 1028.6 -22.7
03 13.02 С 4 10 км ясно -7.4 -26.0 21 -13 -9 1031.5 1026.8
06 13.02 С 4 20 км ясно -5.0 -26.1 17 -10 -8 1029.5 1024.9
09 13.02 СВ 2 20 км ясно -8.2 -25.2 24 -12 -12 1030.7 1026.1 -4.5
12 13.02 СВ 1 20 км ясно -14.8 -26.0 38 -17 -17 1032.2 1027.4
15 13.02 Ю 1 20 км ясно -16.5 -24.8 49 -19 -19 1033.3 1028.5
18 13.02 Ю 1 20 км ясно -18.4 -24.8 57 -21 -21 1033.9 1029.0
21 13.02 Ю 2 20 км ясно -19.8 -25.0 63 -26 -26 1034.3 1029.4 -20.0
00 14.02 Ю 1 4000 м дым ясно -14.8 -21.3 58 -17 -15 1034.6 1029.8 -22.2
03 14.02 З 5 10 км ясно -4.1 -26.6 15 -10 -6 1032.5 1027.9
06 14.02 СЗ 4 20 км ясно -1.3 -26.8 12 -6 -3 1029.3 1024.7
09 14.02 Ю 2 20 км ясно -4.9 -26.6 16 -8 -8 1029.1 1024.5 -1.2
12 14.02 ЮВ 2 20 км ясно -7.5 -22.1 30 -11 -11 1029.5 1024.8
15 14.02 ЮВ 1 20 км ясно -16.1 -23.9 51 -19 -19 1028.6 1023.8
18 14.02 В 1 20 км ясно -17.2 -23.6 57 -20 -20 1027.7 1022.9
21 14.02 В 1 20 км 10/0
[Ac und]
-16.5 -22.3 61 -19 -19 1025.8 1021.0 -17.6
00 15.02 З 1 4000 м дым 10/0
[Ac trans Ci fib]
-13.0 -20.3 54 -15 -14 1024.1 1019.4
03 15.02 СВ 1 4000 м дым 10/0
[Ac trans Ci sp]
-4.7 -20.8 27 -6 -1 1021.3 1016.7
06 15.02 С 1 10 км 10/0
[As op]
-3.1 -22.6 21 -4 -3 1018.5 1014.0
09 15.02 СВ 1 4000 м дым 8/0
[As trans Ci fib]
-5.3 -24.7 20 -7 -7 1017.5 1013.0 -2.8
12 15.02 З 2 4000 м дым 10/0
[Ci fib]
-11.3 -23.1 37 -16 -16 1019.0 1014.4
15 15.02 штиль 0 4000 м дым 10/0
[Ci fib]
-12.9 -22.9 43 -13 -13 1019.5 1014.8
18 15.02 С 2 4000 м дым 10/0
[Ci fib]
-14.1 -19.6 63 -19 -19 1019.8 1015.1
21 15.02 С 1 4000 м дым 8/0
[Ci fib]
-14.7 -19.1 69 -17 -17 1020.1 1015.4 -15.9
00 16.02 СЗ 4 4000 м дым ясно -8.7 -14.9 61 -15 -14 1020.9 1016.3
03 16.02 СЗ 6
{11}
10 км ясно -2.3 -19.2 26 -8 -6 1018.7 1014.2
06 16.02 СЗ 7
{13}
20 км ясно -0.5 -20.1 21 -6 -6 1016.3 1011.9
09 16.02 СЗ 3
{11}
20 км ясно -5.5 -20.8 29 -10 -10 1016.7 1012.1 -0.3
12 16.02 штиль 0 20 км ясно -8.0 -21.9 32 -8 -8 1016.5 1011.9
15 16.02 С 2 20 км ясно -7.7 -22.1 30 -11 -11 1017.3 1012.7
18 16.02 З 2 20 км ясно -9.0 -21.0 37 -13 -13 1017.7 1013.1
21 16.02 ЮЗ 2 20 км ясно -9.0 -20.5 39 -13 -13 1016.9 1012.3 -13.1
00 17.02 Ю 2 10 км 4/0
[Ci fib]
-6.7 -18.1 40 -10 -8 1017.5 1012.9 -13.7
03 17.02 З 6 20 км 3/0
[Ci fib]
+2.1 -19.2 19 -3 0 1015.8 1011.4
06 17.02 З 7-10
{12}
20 км 3/3 600 м
[Sc]
+5.1 -19.5 15 +1 +2 1013.5 1009.1
09 17.02 С 3
{12}
50 км ясно -0.6 -18.5 24 -4 -4 1015.1 1010.6 +5.3
12 17.02 СВ 2 50 км ясно -5.6 -17.7 38 -9 -9 1018.1 1013.5
15 17.02 штиль 0 50 км ясно -8.9 -17.7 49 -9 -9 1020.2 1015.6
18 17.02 ЮВ 1 50 км ясно -12.7 -18.5 62 -15 -15 1021.4 1016.7
21 17.02 Ю 3 50 км ясно -11.5 -16.8 65 -17 -17 1022.1 1017.4 -14.2
00 18.02 Ю 3 10 км ясно -5.1 -15.5 44 -10 -8 1023.4 1018.9
03 18.02 Ю 3 20 км ясно +3.8 -16.7 21 +1 +7 1022.6 1018.2
06 18.02 Ю 5 20 км ясно +5.9 -17.6 17 +3 +5 1019.9 1015.5
09 18.02 Ю 3
{11}
10 км ясно +2.7 -11.9 33 -0 -0 1019.7 1015.3 +6.1
12 18.02 Ю 3 10 км ясно -0.3 -7.0 61 -5 -5 1021.3 1016.8
15 18.02 Ю 5 10 км 6/0
[Ci fib]
-1.1 -5.7 71 -7 -7 1021.7 1017.2
18 18.02 Ю 4 10 км 10/0
[Cs]
-2.3 -4.8 83 -8 -8 1021.5 1017.0
21 18.02 ЮЗ 1 10 км 10/0
[Ci fib]
-4.6 -6.2 89 -7 -7 1020.8 1016.2 -4.6
00 19.02 штиль 0 4000 м дым 10/4 600 м
[Sc Ci fib]
-5.9 -8.0 85 -7 -5 1021.1 1016.5 -9.6

 

Местоположение метеостанции Тимирязевский (Приморский край, Россия): широта 43.88 долгота 131.90 высота над уровнем моря 36 м.

В архиве по умолчанию представлена погода в Тимирязевском за последнюю неделю. Архивные данные за месяц целиком и за предыдущие месяцы, начиная с января 2011 года, Вы можете получить, выбрав интересующий диапазон дат из раскрывающегося списка и нажав кнопку "Ввод!".


*Определитесь, кто Вы:
робот инопланетянин человек

Внимание! Время в таблицах - всемирное. Для получения местного времени необходимо прибавить поправку, которая равна 10 ч.

Смотрите также архив погоды в соседних городах и на ближайших метеорологических станциях:

Погода в Полтавке (Приморский край, Россия) (51 км)
Погода в Хороле (Приморский край, Россия) (62 км)
Погода в Многоудобном (Приморский край, Россия) (65 км)
Погода в Пограничном (Приморский край, Россия) (75 км)
Погода в Суйфэньхэ (Хэйлунцзян, Китай) (82 км)
Погода в Владивостоке (Приморский край, Россия) (85 км)
Погода в Барабаше (Приморский край, Россия) (86 км)
Погода в Анучино (Приморский край, Россия) (89 км)
Погода на Мысе Назимова (Приморский край, Россия) (92 км)
Погода в Астраханке (Приморский край, Россия) (94 км)

Пояснения к столбцам:

Ветер - указаны скорость ветра в м/с - средняя за 10 мин, порывы в срок и между сроками (в фигурных скобках) и направление, откуда дует ветер: С - северный, СВ - северо-восточный, В - восточный, ЮВ - юго-восточный, Ю - южный, ЮЗ - юго-западный, З - западный, СЗ - северо-западный.
Видимость - горизонтальная дальность видимости в метрах или километрах. При видимости от 1 до 10 км при отсутствии осадков обычно наблюдается дымка, при ухудшении видимости до 1 км и менее - туман. В сухую погоду видимость может ухудшаться дымом, пылью или мглою.
Явления - указаны атмосферные явления, наблюдавшиеся в срок или в последний час перед сроком; фигурными скобками обозначены явления, наблюдавшиеся между сроками (за 1-3 часа до срока); квадратными скобками обозначены град или гололедные отложения с указанием их диаметра в мм.
Облачность - указаны через наклонную черту общая и нижняя облачность в баллах и высота нижней границы облаков в метрах; квадратными скобками обозначены формы облаков: Ci - перистые, Cs - перисто-слоистые, Cc - перисто-кучевые, Ac - высококучевые, As - высокослоистые, Sc - слоисто-кучевые, Ns - слоисто-дождевые, Cu - кучевые, Cb - кучево-дождевые. Подробнее классификацию облаков см. в Атласе облаков (PDF).
T - Температура воздуха - температура, измеренная на высоте 2 м над землей.
Td - Температура точки росы - температура, при понижении до которой содержащийся в воздухе водяной пар достигнет насыщения.
f - Относительная влажность воздуха - влажноcть воздуха, измеренная на высоте 2 м над землей.
Te - Эффективная температура - температура, которую ощущает одетый по сезону человек в тени. Характеристика душности погоды. При расчете учитывается влияние влажности воздуха и скорости ветра на теплоощущения человека.
Tes - Эффективная температура на солнце - температура, которую ощущает человек, с поправкой на солнечный нагрев. Характеристика знойности погоды. Зависит от высоты солнца над горизонтом, облачности и скорости ветра. Ночью, в пасмурную погоду, а также при ветре 12 м/с и более поправка равна нулю.
P - Атмосферное давление - приведенное к уровню моря атмосферное давление.
Po - Атмосферное давление - измеренное на уровне метеостанции атмосферное давление.
Tmin - Минимальная температура - минимум температуры воздуха на высоте 2 м над землей.
Tmax - Максимальная температура - максимум температуры воздуха на высоте 2 м над землей.
R - Количество осадков - Количество выпавших осадков за период времени, мм. При наведении курсора мыши на число - период времени, за который выпало указанное количество осадков.
R24 - Количество осадков - Количество выпавших осадков за 24 часа, мм.
S - Снежный покров - Высота снежного покрова, см. При наведении курсора мыши на число - состояние снежного покрова и степень покрытия местности в баллах.